When you browse on this site, cookies collect data to enhance your experience and personalize the content and advertising you see.
Visit our Privacy Policy to learn more. By continuing to use the site, you agree to this use of cookies and data.
  • Em Portugal
  • Lista de países
  • Para 7 dias
  • Temperatura da água
  • Mapa do tempo
  • Widgets de tempo
  • user-avatar
    Iniciar Sessão

    Previsão horária em Zaranj

    Hoje, 16 Outubro, Quarta-feira

    Tempo Temperatura Precipitação Vento Pressão Humidade
    00:00 +17°C° 0 mm 6 m/s 721 mmHg 34%
    01:00 +17°C° 0 mm 6 m/s 721 mmHg 34%
    02:00 +16°C° 0 mm 6 m/s 721 mmHg 34%
    03:00 +16°C° 0 mm 6 m/s 721 mmHg 35%
    04:00 +15°C° 0 mm 5 m/s 721 mmHg 37%
    05:00 +15°C° 0 mm 5 m/s 721 mmHg 35%
    06:00 +17°C° 0 mm 4 m/s 722 mmHg 34%
    07:00 +17°C° 0 mm 4 m/s 722 mmHg 33%
    08:00 +19°C° 0 mm 5 m/s 722 mmHg 29%
    09:00 +22°C° 0 mm 5 m/s 722 mmHg 24%
    10:00 +25°C° 0 mm 5 m/s 723 mmHg 20%
    11:00 +26°C° 0 mm 5 m/s 722 mmHg 18%
    12:00 +28°C° 0 mm 4 m/s 722 mmHg 17%
    13:00 +29°C° 0 mm 4 m/s 721 mmHg 15%
    14:00 +29°C° 0 mm 3 m/s 721 mmHg 15%
    15:00 +29°C° 0 mm 2 m/s 720 mmHg 14%
    16:00 +29°C° 0 mm 2 m/s 720 mmHg 14%
    17:00 +27°C° 0 mm 2 m/s 720 mmHg 17%
    18:00 +24°C° 0 mm 2 m/s 720 mmHg 20%
    19:00 +20°C° 0 mm 2 m/s 720 mmHg 23%
    20:00 +20°C° 0 mm 2 m/s 720 mmHg 24%
    21:00 +21°C° 0 mm 3 m/s 720 mmHg 25%
    22:00 +21°C° 0 mm 4 m/s 720 mmHg 26%
    23:00 +20°C° 0 mm 4 m/s 720 mmHg 27%

    Amanhã, 17 Outubro, Quinta-feira

    Tempo Temperatura Precipitação Vento Pressão Humidade
    00:00 +20°C° 0 mm 4 m/s 720 mmHg 28%
    01:00 +19°C° 0 mm 5 m/s 720 mmHg 29%
    02:00 +19°C° 0 mm 5 m/s 720 mmHg 30%
    03:00 +17°C° 0 mm 5 m/s 720 mmHg 31%
    04:00 +17°C° 0 mm 5 m/s 720 mmHg 32%
    05:00 +17°C° 0 mm 5 m/s 721 mmHg 32%
    06:00 +19°C° 0 mm 6 m/s 721 mmHg 32%
    07:00 +19°C° 0 mm 6 m/s 722 mmHg 32%
    08:00 +21°C° 0 mm 7 m/s 722 mmHg 27%
    09:00 +24°C° 0 mm 7 m/s 722 mmHg 22%
    10:00 +27°C° 0 mm 8 m/s 723 mmHg 17%
    11:00 +29°C° 0 mm 8 m/s 722 mmHg 15%
    12:00 +31°C° 0 mm 8 m/s 722 mmHg 14%
    13:00 +32°C° 0 mm 7 m/s 721 mmHg 12%
    14:00 +32°C° 0 mm 8 m/s 721 mmHg 12%
    15:00 +31°C° 0 mm 8 m/s 720 mmHg 12%
    16:00 +31°C° 0 mm 8 m/s 720 mmHg 13%
    17:00 +28°C° 0 mm 7 m/s 720 mmHg 15%
    18:00 +26°C° 0 mm 7 m/s 720 mmHg 18%
    19:00 +24°C° 0 mm 6 m/s 720 mmHg 21%
    20:00 +23°C° 0 mm 7 m/s 720 mmHg 22%
    21:00 +23°C° 0 mm 8 m/s 720 mmHg 23%
    22:00 +23°C° 0 mm 8 m/s 721 mmHg 24%
    23:00 +22°C° 0 mm 8 m/s 720 mmHg 26%

    Depois de amanhã, 18 Outubro, Sexta-feira

    Tempo Temperatura Precipitação Vento Pressão Humidade
    00:00 +21°C° 0 mm 8 m/s 720 mmHg 27%
    01:00 +20°C° 0 mm 8 m/s 720 mmHg 29%
    02:00 +18°C° 0 mm 7 m/s 720 mmHg 30%
    03:00 +18°C° 0 mm 7 m/s 720 mmHg 32%
    04:00 +17°C° 0 mm 7 m/s 719 mmHg 33%
    05:00 +18°C° 0 mm 7 m/s 720 mmHg 33%
    06:00 +18°C° 0 mm 7 m/s 720 mmHg 32%
    07:00 +18°C° 0 mm 7 m/s 721 mmHg 31%
    08:00 +21°C° 0 mm 8 m/s 721 mmHg 27%
    09:00 +23°C° 0 mm 9 m/s 721 mmHg 23%
    10:00 +27°C° 0 mm 10 m/s 721 mmHg 19%
    11:00 +28°C° 0 mm 9 m/s 721 mmHg 17%
    12:00 +29°C° 0 mm 9 m/s 720 mmHg 15%
    13:00 +31°C° 0 mm 8 m/s 720 mmHg 14%
    14:00 +30°C° 0 mm 7 m/s 720 mmHg 13%
    15:00 +30°C° 0 mm 7 m/s 719 mmHg 13%
    16:00 +30°C° 0 mm 7 m/s 719 mmHg 13%
    17:00 +28°C° 0 mm 6 m/s 719 mmHg 16%
    18:00 +26°C° 0 mm 6 m/s 719 mmHg 19%
    19:00 +23°C° 0 mm 5 m/s 719 mmHg 22%
    20:00 +22°C° 0 mm 5 m/s 719 mmHg 24%
    21:00 +21°C° 0 mm 5 m/s 719 mmHg 25%
    22:00 +21°C° 0 mm 5 m/s 719 mmHg 26%
    23:00 +20°C° 0 mm 5 m/s 719 mmHg 27%

    19 Outubro, Sábado

    Tempo Temperatura Precipitação Vento Pressão Humidade
    00:00 +19°C° 0 mm 5 m/s 719 mmHg 27%
    01:00 +19°C° 0 mm 5 m/s 719 mmHg 27%
    02:00 +18°C° 0 mm 4 m/s 719 mmHg 27%
    03:00 +18°C° 0 mm 4 m/s 719 mmHg 28%
    04:00 +17°C° 0 mm 4 m/s 719 mmHg 29%
    05:00 +17°C° 0 mm 4 m/s 720 mmHg 28%
    06:00 +18°C° 0 mm 3 m/s 720 mmHg 28%
    07:00 +18°C° 0 mm 3 m/s 721 mmHg 28%
    08:00 +20°C° 0 mm 3 m/s 721 mmHg 24%
    09:00 +23°C° 0 mm 4 m/s 722 mmHg 20%
    10:00 +27°C° 0 mm 4 m/s 722 mmHg 16%
    11:00 +28°C° 0 mm 3 m/s 721 mmHg 15%
    12:00 +29°C° 0 mm 3 m/s 721 mmHg 13%
    13:00 +30°C° 0 mm 2 m/s 720 mmHg 11%
    14:00 +30°C° 0 mm 2 m/s 720 mmHg 11%
    15:00 +30°C° 0 mm 2 m/s 720 mmHg 11%
    16:00 +30°C° 0 mm 2 m/s 719 mmHg 10%
    17:00 +27°C° 0 mm 2 m/s 719 mmHg 13%
    18:00 +24°C° 0 mm 1 m/s 719 mmHg 15%
    19:00 +21°C° 0 mm 1 m/s 719 mmHg 18%
    20:00 +20°C° 0 mm 1 m/s 719 mmHg 19%
    21:00 +19°C° 0 mm 1 m/s 719 mmHg 19%
    22:00 +18°C° 0 mm 1 m/s 720 mmHg 20%
    23:00 +19°C° 0 mm 1 m/s 720 mmHg 21%

    20 Outubro, Domingo

    Tempo Temperatura Precipitação Vento Pressão Humidade
    00:00 +18°C° 0 mm 2 m/s 720 mmHg 22%
    01:00 +18°C° 0 mm 2 m/s 720 mmHg 23%
    02:00 +17°C° 0 mm 2 m/s 719 mmHg 24%
    03:00 +17°C° 0 mm 2 m/s 719 mmHg 26%
    04:00 +16°C° 0 mm 2 m/s 719 mmHg 27%
    05:00 +17°C° 0 mm 2 m/s 720 mmHg 25%
    06:00 +19°C° 0 mm 1 m/s 720 mmHg 23%
    07:00 +19°C° 0 mm 1 m/s 721 mmHg 21%
    08:00 +21°C° 0 mm 2 m/s 721 mmHg 18%
    09:00 +25°C° 0 mm 2 m/s 722 mmHg 15%
    10:00 +29°C° 0 mm 2 m/s 722 mmHg 12%
    11:00 +30°C° 0 mm 2 m/s 722 mmHg 10%
    12:00 +31°C° 0 mm 2 m/s 721 mmHg 9%
    13:00 +32°C° 0 mm 2 m/s 721 mmHg 7%
    14:00 +32°C° 0 mm 2 m/s 720 mmHg 7%
    15:00 +32°C° 0 mm 2 m/s 720 mmHg 6%
    16:00 +32°C° 0 mm 2 m/s 720 mmHg 6%
    17:00 +28°C° 0 mm 2 m/s 719 mmHg 8%
    18:00 +24°C° 0 mm 1 m/s 719 mmHg 10%
    19:00 +18°C° 0 mm 0 m/s 719 mmHg 12%
    20:00 +20°C° 0 mm 1 m/s 719 mmHg 13%
    21:00 +20°C° 0 mm 1 m/s 719 mmHg 13%
    22:00 +20°C° 0 mm 1 m/s 720 mmHg 13%
    23:00 +20°C° 0 mm 2 m/s 720 mmHg 14%

    21 Outubro, Segunda-feira

    Tempo Temperatura Precipitação Vento Pressão Humidade
    00:00 +20°C° 0 mm 3 m/s 720 mmHg 15%
    01:00 +21°C° 0 mm 3 m/s 720 mmHg 17%
    02:00 +20°C° 0 mm 3 m/s 719 mmHg 18%
    03:00 +20°C° 0 mm 3 m/s 719 mmHg 19%
    04:00 +20°C° 0 mm 3 m/s 719 mmHg 20%
    05:00 +20°C° 0 mm 3 m/s 720 mmHg 20%
    06:00 +20°C° 0 mm 3 m/s 720 mmHg 20%
    07:00 +21°C° 0 mm 3 m/s 720 mmHg 19%
    08:00 +24°C° 0 mm 3 m/s 721 mmHg 16%
    09:00 +27°C° 0 mm 4 m/s 721 mmHg 14%
    10:00 +29°C° 0 mm 5 m/s 721 mmHg 11%
    11:00 +30°C° 0 mm 4 m/s 721 mmHg 10%
    12:00 +33°C° 0 mm 3 m/s 720 mmHg 9%
    13:00 +34°C° 0 mm 2 m/s 720 mmHg 8%
    14:00 +34°C° 0 mm 2 m/s 719 mmHg 8%
    15:00 +34°C° 0 mm 2 m/s 719 mmHg 8%
    16:00 +34°C° 0 mm 2 m/s 718 mmHg 8%
    17:00 +29°C° 0 mm 1 m/s 718 mmHg 11%
    18:00 +26°C° 0 mm 1 m/s 718 mmHg 14%
    19:00 +22°C° 0 mm 1 m/s 718 mmHg 17%
    20:00 +22°C° 0 mm 1 m/s 718 mmHg 17%
    21:00 +21°C° 0 mm 2 m/s 718 mmHg 17%
    22:00 +23°C° 0 mm 2 m/s 718 mmHg 18%
    23:00 +22°C° 0 mm 3 m/s 718 mmHg 20%
    Mostrar mais